HESHHEGN

Guest
Details From HESH - Sharm El Sheikh Intl
To HEGN - Hurghada Intl
Flight Number -
Tags Generated
Created
Modified
Stats Distance 56 nm / 104 km
Max Altitude 0 ft / 0 m
Waypoints 2
Social Downloads 2
Likes 0
Share VATSIM

Download

Looking for another format? Having issues loading an existing format? Contact us
Advertisement - Login to hide

Notes

Generated

Route

HESH HEGN

ID Type Via Altitude Latitude Longitude Leg Dist Tot Dist Heading (true) Name
O HESH APT - 0 ft / 0 m 27.96574˚ 34.38598˚ - 0 nm - -
O HEGN APT - 0 ft / 0 m 27.19576˚ 33.79425˚ 55 nm 55 nm 214° / 214° -

Altitude Profile

Advertisement - Login to hide

HESH

Details ICAO HESH (SSH)
Name SHARM EL SHEIKH INTL
Region Egypt
Timezone Africa/Cairo (UTC+2.0)
Stats Elevation 143 ft / 44 m (AMSL)
Location 27.977318° 34.394945°
Runways 2
Magnetic Variation 4.282° E

METAR

HESH 180300Z 34007KT CAVOK 18/03 Q1018 NOSIG

Decode

TAF

Not found

Departure Runways

ID Width Length Bearing (true) Bearing (mag) Surface Threshold Offset Overrun Length
04L 148 ft / 45 m 10,120 ft / 3,085 m 42.65° 38.37° Asphalt 0 ft / 0 m 200 ft / 61 m
04R 148 ft / 45 m 10,121 ft / 3,085 m 42.65° 38.37° Asphalt 0 ft / 0 m 200 ft / 61 m
22L 148 ft / 45 m 10,121 ft / 3,085 m 222.66° 218.38° Asphalt 0 ft / 0 m 200 ft / 61 m
22R 148 ft / 45 m 10,120 ft / 3,085 m 222.66° 218.38° Asphalt 0 ft / 0 m 200 ft / 61 m

HEGN

Details ICAO HEGN (HRG)
Name HURGHADA INTL
Region Egypt
Timezone Africa/Cairo (UTC+2.0)
Stats Elevation 52 ft / 16 m (AMSL)
Location 27.178308° 33.799397°
Runways 1
Magnetic Variation 4.212° E

METAR

HEGN 180300Z 27005KT CAVOK 14/08 Q1019 NOSIG

Decode

TAF

Not found

Destination Runways

ID Width Length Bearing (true) Bearing (mag) Surface Threshold Offset Overrun Length
16 148 ft / 45 m 13,169 ft / 4,014 m 165.29° 161.08° Asphalt 985 ft / 300 m 0 ft / 0 m
34 148 ft / 45 m 13,169 ft / 4,014 m 345.29° 341.08° Asphalt 0 ft / 0 m 200 ft / 61 m

Approach Navaids

Runway Type Ident Frequency Range Bearing (true) Bearing (mag) Slope Elevation
34 Localiser HIL 110.30 MHz 18 nm / 33 km 347.43° 343.22° - 56 ft / 17 m (AMSL)
34 Glidescope HIL 110.30 MHz 10 nm / 19 km 345.29° 341.08° 3.00° 64 ft / 20 m (AMSL)
34 DME HIL 110.30 MHz 18 nm / 33 km - - - 30 ft / 9 m (AMSL)

Popular Alternatives